Вернуться в каталог

THORAD AGENA D DEB

АктивенLEO
NORAD 4218·DEBRIS·🇺🇸 United States

Запущен Sep 30, 1969 с Vandenberg Space Force Base

Loading…

Ближайшие Пролёты (ближайшие 24 часа)

TLE

СвежийSource: Space-Track

Эпоха: Sep 13, 2026, 17:51 UTC

1 04218U 69082CH  26256.74390366  .00001773  00000-0  37135-3 0  9999
2 04218  70.0970  17.4595 0030458 167.6879 192.5013 14.61115706971779

Отслеживайте THORAD AGENA D DEB в реальном времени с AllMySat

Download on the App Store